Temperature
8 8 8 9 9 9 9 9 10 9 9 9 10 10 10 10 10 10 10 10 10 10 10 10 10 10 10 10 10 10 10 9 9 9 9 9 9 9 9 9 9 10 10
7 8 8 8 8 9 9 9 9 9 9 9 9 9 9 9 10 10 10 10 10 10 10 10 10 10 9 9 9 9 9 9 9 9 8 8 9 9 9 9 9 9 9
7 7 7 8 8 8 8 8 8 9 9 8 8 8 8 8 9 9 9 9 9 9 9 9 9 9 9 9 9 9 9 9 9 8 8 8 8 9 9 9 9 9 9
6 6 7 7 7 8 8 8 8 8 8 8 8 8 8 8 8 8 9 9 9 9 9 9 9 9 9 9 9 9 9 9 8 8 8 8 8 8 9 9 9 9 9
5 6 6 7 7 7 7 7 7 7 7 7 7 7 7 7 8 8 8 8 8 8 8 8 8 8 8 9 8 8 8 8 8 8 8 8 8 8 8 8 9 9 9
5 5 5 6 6 6 7 7 7 7 7 7 7 7 7 7 7 7 7 8 8 8 8 8 8 8 8 8 8 8 8 8 8 8 8 8 8 8 8 7 8 8 8
4 4 5 5 6 6 6 6 6 6 6 6 6 6 6 6 7 7 7 7 7 7 7 7 7 7 7 7 8 7 7 7 7 7 7 7 7 7 7 7 7 7 7
3 3 4 4 4 5 5 5 5 5 5 5 6 6 6 6 6 6 6 6 6 7 7 7 7 7 7 7 7 7 7 7 7 7 7 7 7 7 7 7 6 6 6
3 3 3 3 4 4 4 4 4 4 4 4 5 5 5 5 5 5 6 6 6 6 6 6 6 6 6 6 6 6 6 6 6 6 6 6 6 6 6 6 6 5 5
2 3 3 3 3 3 3 3 3 4 4 4 4 4 4 4 4 4 5 5 5 5 6 6 6 6 6 6 6 6 6 6 6 6 6 6 6 6 6 5 5 5 5
2 2 2 2 2 2 2 2 3 3 3 3 3 3 3 4 4 4 4 4 4 5 5 5 5 5 5 5 5 5 5 5 5 5 5 5 5 5 5 5 5 5 5
1 1 1 1 1 2 2 2 2 2 2 2 3 3 3 3 3 3 3 3 4 4 4 4 4 4 5 5 5 5 5 5 5 5 5 5 5 5 5 4 5 4 4
1 1 1 1 1 1 1 2 2 2 2 2 2 2 2 2 2 2 3 3 3 3 4 4 4 4 4 4 4 4 4 4 4 4 4 4 4 4 4 4 4 4 4
0 0 0 0 0 1 1 1 1 2 2 2 2 2 2 1 2 2 2 2 2 3 3 3 3 3 3 3 3 3 3 3 3 3 3 3 3 4 4 3 3 4 3
-1 -0 -0 -0 -0 0 0 1 1 1 1 1 1 1 1 1 1 1 1 1 2 2 2 2 2 2 2 2 3 2 3 2 2 3 3 3 3 3 3 3 3 3 3
-1 -1 -1 -1 -0 -0 -0 0 1 1 1 1 1 1 1 1 1 1 1 1 1 1 1 1 1 1 2 2 2 2 2 2 2 2 2 2 3 3 3 3 3 3 3
-1 -1 -1 -1 -1 -1 -1 -0 -0 0 0 0 0 -0 -0 -0 0 0 0 0 0 0 0 1 1 1 1 1 1 1 1 1 1 2 2 2 2 2 2 2 2 2 2
-2 -2 -2 -1 -1 -1 -1 -1 -1 -0 -1 -1 -1 -1 -1 -1 -1 -1 -1 -0 -0 -0 -0 0 0 0 1 1 1 1 1 1 1 1 1 1 2 2 2 2 2 2 2
-2 -2 -2 -2 -1 -1 -1 -1 -1 -1 -1 -1 -1 -1 -1 -1 -1 -1 -1 -1 -1 -1 -1 -1 -0 -0 0 1 1 1 0 1 1 1 1 1 1 1 1 1 1 1 1
-2 -2 -2 -2 -2 -2 -2 -2 -2 -2 -1 -2 -2 -2 -2 -2 -2 -2 -2 -2 -2 -1 -1 -1 -1 -1 -0 -0 -0 0 0 0 0 0 1 1 1 1 1 1 1 1 1
-3 -2 -2 -2 -2 -2 -2 -2 -2 -2 -2 -2 -2 -2 -2 -2 -2 -2 -2 -2 -2 -2 -2 -2 -1 -1 -1 -1 -1 -0 -1 -1 -0 -0 -0 0 0 0 0 0 0 0 0
-3 -3 -3 -3 -2 -3 -3 -2 -2 -2 -2 -2 -2 -2 -2 -2 -2 -2 -2 -2 -3 -2 -2 -2 -2 -1 -1 -1 -1 -1 -1 -1 -1 -1 -1 -1 -1 -1 -1 -1 -1 -1 -0
-3 -3 -3 -3 -3 -3 -3 -3 -3 -3 -3 -3 -3 -3 -3 -3 -3 -3 -3 -3 -3 -3 -3 -3 -3 -2 -2 -2 -2 -2 -2 -2 -2 -1 -1 -1 -1 -1 -1 -1 -1 -1 -1
-4 -4 -3 -3 -3 -3 -3 -3 -3 -3 -3 -3 -3 -3 -3 -3 -3 -3 -3 -3 -3 -3 -3 -3 -3 -3 -3 -2 -2 -2 -2 -2 -2 -2 -2 -2 -2 -2 -2 -2 -2 -2 -2
-4 -4 -4 -4 -4 -4 -4 -4 -4 -4 -3 -4 -4 -4 -4 -4 -4 -4 -4 -3 -3 -3 -4 -3 -3 -3 -3 -3 -3 -3 -3 -3 -2 -2 -2 -2 -2 -2 -2 -2 -2 -2 -2
-4 -4 -4 -4 -4 -4 -4 -4 -4 -4 -4 -4 -4 -4 -4 -4 -4 -4 -4 -4 -4 -4 -4 -4 -4 -4 -3 -3 -3 -3 -3 -3 -3 -3 -3 -3 -3 -3 -3 -3 -3 -3 -3
Wind_Speed
3 2 2 2 2 2 2 0 1 1 1 1 1 1 2 2 2 3 4 4 4 6 6 5 5 6 5 5 5 3 3 2 2 1 1 2 1 2 2 2 2 3 3
3 3 3 3 2 2 2 1 1 1 2 2 2 2 2 2 3 2 3 5 5 6 6 6 5 6 5 5 6 4 3 2 3 2 1 1 2 2 3 2 3 3 3
3 3 3 2 3 2 2 2 2 2 2 2 1 0 0 0 1 2 2 3 5 5 5 6 6 6 6 6 6 6 6 4 3 3 3 3 4 2 2 3 3 3 3
3 2 2 3 3 3 3 2 2 2 2 2 2 2 2 3 3 3 3 3 4 4 5 5 6 6 5 6 7 6 5 5 4 3 2 2 2 2 2 2 2 3 4
3 3 3 3 3 3 2 2 2 2 2 2 3 3 3 3 2 2 3 3 3 4 4 5 5 5 5 5 5 6 6 5 5 4 3 2 2 2 3 4 3 2 4
3 2 2 2 3 3 2 2 2 3 2 2 2 3 3 3 2 3 3 3 2 2 4 5 5 5 5 5 6 6 7 6 6 5 4 4 4 4 4 4 4 4 3
2 2 3 3 4 3 3 2 2 3 3 2 2 2 3 3 4 4 4 3 3 3 4 4 5 5 5 6 6 5 6 6 6 6 5 5 5 4 4 4 3 3 3
3 3 3 3 4 4 3 3 3 3 3 3 3 2 2 2 3 3 3 4 4 4 4 4 4 5 5 6 5 5 5 5 6 6 6 5 5 5 4 4 4 3 3
4 4 4 3 3 3 3 3 3 3 3 3 3 3 3 3 3 3 3 3 3 3 4 4 4 4 5 6 6 5 6 5 5 6 6 5 5 5 5 5 5 5 4
5 5 3 3 3 3 4 3 3 4 4 4 3 3 3 3 3 3 3 3 3 3 3 4 4 4 4 4 5 5 4 5 5 4 6 5 4 4 5 5 5 5 6
6 6 4 4 4 4 4 4 4 4 4 4 4 4 4 4 3 3 4 4 3 3 3 4 4 4 4 4 5 5 5 5 5 5 6 6 5 5 5 5 5 5 5
5 5 5 5 5 5 5 5 5 4 5 4 4 3 3 3 3 3 4 3 4 4 3 3 4 4 4 4 5 5 5 6 6 6 6 6 5 6 5 5 6 6 6
6 6 6 6 6 6 5 5 5 5 5 4 3 3 3 3 4 4 4 3 4 3 3 3 4 4 4 4 5 4 5 6 6 7 7 7 6 6 5 6 6 6 5
5 6 6 7 7 6 5 5 5 5 4 3 3 3 3 4 4 4 3 3 3 3 3 4 4 4 4 4 3 4 5 5 5 6 7 7 8 8 7 6 7 6 5
7 7 8 8 7 6 6 5 5 4 4 3 3 4 3 3 3 3 3 3 3 3 3 3 3 3 3 4 4 4 4 4 5 5 6 7 9 10 8 7 6 6 6
8 8 8 8 7 6 6 5 5 4 3 3 4 3 3 2 3 3 3 3 3 3 3 3 3 3 4 6 7 5 4 4 4 5 5 6 7 9 11 11 10 9 8
9 9 8 8 7 6 5 5 4 4 3 3 3 3 3 2 3 3 2 3 3 3 3 3 3 4 5 7 7 7 4 4 4 4 4 5 6 7 6 8 9 9 11
8 8 7 7 6 5 4 4 3 3 3 3 3 3 3 3 3 2 3 3 3 3 3 3 3 4 5 6 6 6 3 3 4 4 5 5 5 6 6 6 5 6 6
7 7 6 6 4 4 3 3 3 3 3 3 3 3 3 3 3 3 4 3 3 3 3 3 3 4 5 6 6 6 3 3 4 4 4 4 5 8 8 6 5 5 4
6 5 5 4 3 3 2 2 3 3 3 4 4 4 3 3 3 4 4 3 3 3 3 3 3 3 4 6 5 5 2 3 3 3 3 5 6 7 7 6 5 6 4
6 5 4 4 4 3 2 2 3 4 5 4 4 4 3 3 3 4 3 2 2 2 2 3 3 3 4 5 6 5 2 2 3 3 3 3 5 6 5 5 4 5 3
6 5 4 5 4 3 2 3 4 5 4 4 3 4 3 3 3 2 2 2 2 2 2 3 3 3 3 4 5 6 5 4 3 3 3 3 5 4 3 3 3 3 2
5 5 4 5 5 4 2 3 5 4 4 3 4 4 4 3 3 2 2 2 2 2 2 3 3 3 2 3 5 6 5 5 3 3 4 4 3 2 1 2 3 2 2
5 4 4 5 5 5 4 4 5 4 3 3 4 4 3 3 3 3 2 2 2 2 3 3 3 3 3 2 2 2 3 3 3 2 2 1 1 1 0 1 0 1 2
5 4 4 5 6 6 6 5 5 3 3 3 4 4 3 3 3 3 2 3 3 4 3 3 3 3 4 4 5 3 2 2 2 1 0 1 1 0 1 1 1 1 1
5 5 5 5 6 6 6 6 5 3 3 3 3 3 3 2 2 3 3 5 4 6 6 6 5 5 6 6 5 5 4 3 2 0 1 1 1 1 1 1 1 1 1
Wind_Direction
295 334 355 350 19 22 19 307 196 219 165 176 203 218 226 228 225 221 209 203 200 193 184 188 183 183 192 194 186 183 184 188 151 116 345 318 275 242 234 221 210 218 217
332 348 0 7 359 347 337 339 261 239 211 210 204 206 219 221 219 226 224 213 204 203 198 191 192 193 194 192 191 177 177 181 167 150 136 279 297 267 241 225 219 222 215
287 314 336 342 344 335 311 304 279 256 240 213 186 136 86 23 245 233 229 229 218 209 204 200 196 196 196 200 197 190 184 192 197 183 167 179 226 266 261 231 226 223 221
273 284 302 319 319 304 301 296 287 282 268 215 183 186 209 224 237 239 237 240 225 217 207 200 198 198 200 201 202 198 192 184 198 208 210 198 179 194 259 272 243 231 233
261 268 275 283 302 308 311 311 323 314 293 244 213 204 226 237 246 247 243 247 238 225 213 208 201 201 206 206 205 203 199 198 201 197 189 197 209 200 208 258 271 266 244
277 275 295 314 317 316 322 335 343 319 310 280 236 221 228 239 244 251 240 245 250 243 228 217 208 206 210 209 209 208 206 208 205 205 199 190 190 199 202 230 248 260 260
298 308 322 324 321 323 328 329 327 317 313 297 271 248 240 238 237 239 234 239 249 251 246 234 219 215 212 209 207 209 211 209 208 211 216 214 213 194 195 212 233 255 272
304 302 303 307 312 316 325 320 309 308 308 294 281 270 253 247 243 244 245 237 241 243 244 237 233 225 214 211 207 212 217 210 211 218 216 221 219 206 202 198 203 248 268
308 310 314 314 312 317 319 309 302 305 302 291 280 277 268 253 250 252 255 249 253 251 237 228 227 231 222 215 207 212 215 211 213 216 216 221 221 212 213 205 199 208 245
313 317 316 313 311 310 310 312 307 300 299 294 281 276 269 252 246 249 257 259 261 257 243 238 229 227 225 216 214 217 212 210 216 215 215 222 221 215 215 214 212 210 221
314 314 315 315 316 317 312 310 313 314 310 299 284 276 275 265 250 247 253 255 257 253 242 238 238 235 231 223 218 218 211 214 219 217 216 224 221 220 216 214 214 215 215
314 316 317 321 321 316 313 311 313 311 300 292 281 276 277 273 264 262 264 263 258 256 253 243 237 241 242 235 223 221 220 220 223 224 223 228 226 226 219 214 218 221 218
322 325 327 323 318 313 311 310 308 303 303 298 284 281 282 277 272 271 270 269 265 264 262 249 243 242 242 244 229 218 225 229 229 226 224 225 220 233 228 219 221 222 224
313 317 318 317 315 313 311 309 307 303 304 299 286 274 269 267 270 273 269 267 266 261 257 252 249 243 239 239 230 229 230 230 237 232 227 225 221 227 225 227 223 217 218
312 312 313 314 315 315 313 312 308 309 309 305 295 281 272 267 273 275 276 276 270 269 262 258 260 252 239 239 229 228 235 235 240 240 234 233 233 233 232 230 220 213 219
303 306 308 311 310 310 312 316 315 315 311 302 298 298 293 278 271 274 276 282 281 279 267 260 257 258 259 260 257 253 237 238 240 247 249 245 242 239 240 239 231 222 221
297 301 304 303 302 304 307 306 307 315 318 309 305 303 293 277 271 275 280 277 274 275 269 263 261 262 264 263 262 265 251 235 240 244 248 253 246 240 231 236 237 234 233
296 296 295 297 297 301 308 308 315 318 314 308 306 305 295 283 278 272 270 271 272 269 266 270 271 271 270 272 269 271 263 242 242 243 242 243 243 236 225 222 230 236 240
292 291 290 292 294 298 305 318 320 317 315 302 298 299 290 287 286 276 270 270 267 270 269 269 269 269 274 278 275 277 258 251 253 252 251 245 241 238 228 220 225 237 246
313 312 317 319 313 311 320 330 316 318 307 299 295 294 288 279 281 281 274 268 260 266 278 281 273 268 273 283 285 287 260 258 265 267 260 256 249 246 231 220 218 230 233
325 334 334 328 319 325 337 315 308 301 299 299 295 293 290 283 280 284 279 272 276 283 280 284 280 272 278 290 294 294 277 262 264 267 269 263 257 251 240 230 222 225 212
333 340 342 335 335 341 343 326 314 311 314 312 308 308 306 300 299 291 292 286 277 282 282 288 294 288 282 294 298 303 297 284 261 263 268 262 261 244 236 241 226 219 202
329 336 337 335 338 342 338 316 313 321 329 330 323 320 318 307 302 294 288 284 268 261 274 277 281 293 293 294 302 305 303 299 286 269 269 271 270 255 241 217 215 209 164
328 333 338 338 334 336 333 315 315 321 325 322 319 320 324 323 321 313 300 285 272 267 268 270 279 284 289 291 291 287 290 295 294 288 285 307 351 334 178 194 176 134 161
327 333 335 332 328 334 333 327 324 328 331 323 318 322 324 320 325 321 304 290 278 268 266 266 266 273 277 284 289 283 277 268 257 270 338 19 16 52 80 110 117 121 128
326 333 336 334 332 334 332 332 331 326 322 321 319 319 319 316 315 320 327 326 312 312 303 290 281 282 282 289 291 292 288 287 263 309 245 237 206 210 207 186 151 126 138
Height
1472 1473 1473 1474 1474 1475 1476 1477 1478 1479 1479 1480 1481 1482 1483 1484 1486 1488 1490 1492 1493 1495 1496 1498 1500 1503 1505 1506 1508 1510 1511 1513 1514 1516 1516 1517 1517 1518 1518 1520 1521 1521 1522
1469 1470 1470 1471 1471 1472 1472 1473 1474 1475 1476 1477 1477 1478 1479 1480 1482 1484 1486 1487 1489 1491 1492 1494 1496 1498 1500 1502 1504 1506 1507 1508 1510 1512 1513 1513 1514 1513 1514 1515 1516 1517 1518
1466 1467 1468 1468 1468 1469 1469 1470 1471 1472 1472 1473 1474 1475 1475 1476 1478 1479 1481 1483 1484 1486 1488 1490 1492 1493 1495 1497 1499 1501 1502 1504 1506 1508 1510 1510 1508 1509 1510 1510 1512 1513 1513
1464 1464 1465 1465 1466 1466 1467 1467 1468 1468 1469 1469 1470 1470 1471 1471 1473 1474 1476 1478 1480 1481 1483 1485 1487 1488 1490 1492 1494 1496 1498 1499 1501 1503 1504 1506 1506 1507 1505 1506 1507 1508 1508
1461 1461 1462 1462 1463 1463 1464 1464 1464 1464 1465 1465 1466 1466 1467 1468 1470 1470 1472 1473 1475 1476 1478 1480 1482 1483 1485 1486 1488 1490 1492 1494 1495 1497 1499 1500 1501 1502 1502 1501 1501 1502 1503
1458 1459 1459 1459 1460 1460 1460 1460 1460 1460 1461 1461 1462 1462 1463 1464 1465 1466 1467 1468 1470 1471 1473 1474 1476 1478 1479 1481 1483 1485 1486 1488 1490 1491 1493 1494 1496 1496 1497 1497 1496 1497 1498
1456 1456 1455 1455 1456 1456 1455 1456 1456 1456 1456 1457 1457 1458 1459 1459 1460 1461 1461 1463 1464 1465 1467 1468 1470 1472 1474 1475 1477 1479 1480 1482 1484 1485 1487 1489 1490 1491 1492 1493 1492 1492 1492
1454 1454 1453 1453 1452 1452 1452 1452 1452 1452 1452 1453 1453 1453 1454 1455 1455 1456 1457 1458 1459 1460 1461 1463 1464 1466 1467 1469 1471 1473 1475 1476 1478 1480 1481 1483 1484 1486 1487 1488 1489 1488 1487
1453 1452 1451 1450 1450 1449 1449 1449 1449 1448 1448 1449 1449 1449 1450 1450 1451 1451 1452 1453 1454 1455 1456 1458 1459 1460 1461 1463 1464 1466 1468 1470 1471 1473 1475 1477 1478 1479 1481 1482 1484 1485 1483
1451 1450 1449 1448 1447 1446 1446 1446 1445 1444 1444 1445 1445 1445 1445 1446 1446 1446 1447 1448 1449 1450 1452 1453 1454 1455 1456 1458 1459 1461 1462 1464 1465 1467 1468 1471 1472 1474 1475 1476 1477 1478 1478
1449 1448 1446 1446 1445 1444 1443 1442 1442 1441 1441 1441 1441 1440 1441 1441 1442 1442 1442 1443 1444 1446 1447 1448 1449 1450 1451 1452 1454 1455 1456 1457 1459 1460 1462 1464 1466 1468 1469 1471 1471 1472 1472
1448 1446 1445 1443 1442 1441 1440 1439 1438 1437 1437 1437 1437 1436 1436 1437 1437 1437 1438 1439 1440 1441 1442 1443 1444 1445 1446 1448 1449 1450 1451 1452 1453 1455 1457 1458 1460 1462 1463 1464 1465 1466 1467
1446 1444 1442 1441 1439 1437 1436 1435 1434 1434 1434 1433 1433 1432 1432 1432 1433 1433 1434 1434 1435 1436 1437 1438 1439 1440 1441 1442 1443 1444 1445 1447 1448 1449 1451 1452 1454 1455 1457 1458 1459 1459 1461
1444 1442 1440 1438 1436 1434 1433 1432 1431 1430 1430 1429 1429 1428 1428 1429 1429 1430 1430 1430 1431 1431 1432 1433 1434 1435 1436 1437 1438 1439 1441 1442 1443 1444 1445 1446 1447 1449 1450 1451 1452 1454 1455
1442 1440 1437 1435 1433 1432 1430 1429 1428 1427 1426 1426 1425 1425 1425 1425 1426 1426 1426 1426 1427 1427 1428 1429 1430 1430 1431 1432 1433 1434 1435 1437 1437 1438 1439 1440 1441 1442 1444 1445 1446 1448 1449
1439 1437 1434 1432 1430 1428 1427 1426 1424 1424 1423 1423 1422 1422 1422 1422 1422 1422 1422 1422 1423 1423 1424 1424 1425 1426 1427 1428 1429 1430 1430 1431 1432 1432 1433 1434 1435 1436 1437 1439 1440 1442 1443
1435 1433 1431 1429 1427 1426 1424 1423 1422 1422 1421 1420 1420 1419 1419 1419 1419 1419 1418 1418 1419 1419 1419 1420 1421 1421 1423 1424 1425 1425 1426 1426 1427 1427 1427 1428 1429 1430 1431 1432 1434 1435 1437
1432 1430 1428 1426 1424 1423 1422 1421 1420 1420 1419 1418 1417 1417 1416 1416 1415 1415 1415 1415 1415 1415 1415 1416 1417 1418 1419 1420 1420 1421 1421 1421 1422 1422 1422 1422 1423 1424 1426 1427 1428 1429 1430
1429 1427 1424 1423 1421 1420 1419 1419 1418 1418 1417 1416 1415 1414 1413 1412 1412 1412 1411 1412 1412 1412 1412 1413 1413 1413 1414 1415 1416 1417 1416 1416 1417 1417 1417 1417 1418 1419 1421 1422 1422 1423 1424
1426 1423 1421 1420 1419 1418 1417 1416 1416 1415 1414 1413 1412 1411 1410 1410 1409 1408 1408 1408 1408 1408 1408 1408 1409 1409 1409 1411 1412 1412 1412 1412 1412 1412 1412 1413 1413 1414 1415 1416 1417 1417 1418
1423 1421 1419 1418 1417 1416 1415 1414 1413 1412 1412 1410 1409 1408 1408 1407 1406 1405 1405 1404 1404 1404 1404 1405 1405 1405 1406 1407 1407 1408 1408 1408 1407 1407 1408 1408 1409 1409 1410 1412 1412 1413 1414
1422 1420 1418 1416 1415 1414 1413 1412 1411 1410 1409 1408 1407 1406 1405 1404 1403 1402 1402 1401 1401 1401 1401 1400 1401 1401 1402 1403 1403 1404 1404 1404 1404 1403 1404 1404 1405 1405 1406 1407 1408 1409 1410
1421 1419 1417 1416 1415 1413 1412 1411 1409 1408 1407 1405 1404 1403 1403 1402 1401 1400 1399 1398 1398 1398 1397 1397 1397 1398 1398 1399 1400 1400 1400 1400 1400 1400 1400 1401 1401 1401 1402 1403 1404 1405 1405
1420 1418 1417 1415 1414 1412 1411 1409 1408 1407 1405 1404 1402 1401 1400 1399 1398 1397 1396 1396 1395 1395 1395 1395 1395 1395 1395 1395 1396 1396 1396 1396 1396 1397 1397 1397 1398 1398 1399 1400 1400 1401 1402
1419 1417 1416 1414 1412 1411 1409 1408 1406 1405 1403 1402 1400 1399 1398 1397 1396 1395 1395 1394 1394 1393 1393 1393 1393 1392 1392 1393 1394 1393 1393 1394 1394 1394 1394 1394 1395 1395 1396 1396 1397 1398 1398
1418 1416 1414 1413 1411 1409 1408 1406 1405 1403 1401 1400 1399 1398 1397 1396 1395 1394 1393 1392 1392 1392 1391 1391 1391 1390 1390 1391 1391 1391 1391 1391 1391 1391 1391 1391 1392 1393 1393 1394 1394 1395 1395